Regional Weather Roundup
Issued by NWS

Home | Current Version | Previous Version | Text Only | Print | Product List | Glossary Off
Versions: 1 2 3 4 5 6 7 8 9 10 11 12 13 14 15 16 17 18 19 20 21 22 23 24 25 26 27 28 29 30 31 32 33 34 35 36 37 38 39 40 41 42 43 44 45 46 47 48 49 50

000
ASUS43 KLSX 171507
RWRMO

WEATHER SUMMARY FOR MISSOURI
NATIONAL WEATHER SERVICE SPRINGFIELD MO
1000 AM CDT THU APR 17 2014

NOTE: "FAIR" INDICATES FEW OR NO CLOUDS BELOW 12,000 FEET WITH NO
       SIGNIFICANT WEATHER AND/OR OBSTRUCTIONS TO VISIBILITY.
       CURRENT SKY AND/OR WEATHER CONDITIONS ARE NOT AVAILABLE FOR
       CHILLICOTHE AND FARMINGTON.

MOZ001>031-035>038-043-044-053-054-171600-
...NORTHERN AND WESTERN MISSOURI...

CITY           SKY/WX    TMP DP  RH WIND       PRES   REMARKS
KANSAS CTY INT CLOUDY    38  29  70 N13       30.28R WCI  30
KANSAS C DTWN  CLOUDY    41  30  65 N10       30.29R
LEE`S SUMMIT   CLOUDY    39  31  72 N12       30.28R
ST JOSEPH      CLOUDY    39  28  64 N13       30.31R
CHILLICOTHE      N/A     40  31  70 N7        30.30R
KIRKSVILLE     CLOUDY    41  32  70 NW8       30.27R

$$
MOZ066>068-077>081-088>096-101>105-171600-
...SOUTHWEST MISSOURI...

CITY           SKY/WX    TMP DP  RH WIND       PRES   REMARKS
SPRINGFIELD    PTSUNNY   52  34  50 S9        30.23R
JOPLIN         PTSUNNY   50  38  63 NE7       30.24R

$$
MOZ032>034-039>042-045>050-055>058-069>072-171600-
...CENTRAL MISSOURI...

CITY           SKY/WX    TMP DP  RH WIND       PRES   REMARKS
COLUMBIA       PTSUNNY   48  37  65 NW7       30.26R
JEFFERSON CITY PTSUNNY   48  36  63 W8        30.26R
ROLLA          CLOUDY    49  34  56 S12       30.22R
SEDALIA        CLOUDY    44  36  73 NW10      30.27R
WHITEMAN AFB   PTSUNNY   42  32  69 N10       30.26R
OSAGE BEACH    CLOUDY    50  32  50 W5        30.26R

$$
MOZ051-052-059>065-171600-
...EAST CENTRAL MISSOURI...

CITY           SKY/WX    TMP DP  RH WIND       PRES   REMARKS
ST LOUIS INTL  PTSUNNY   58  34  40 W8        30.24R
SPIRIT OF STL  PTSUNNY   55  33  43 SW10      30.24R
ST CHARLES     PTSUNNY   52  34  50 VRB7      30.23R

$$
MOZ072>076-082>087-097>100-106>115-171600-
...SOUTH CENTRAL AND SOUTHEAST MISSOURI...

CITY           SKY/WX    TMP DP  RH WIND       PRES   REMARKS
CAPE GIRARDEAU SUNNY     57  38  48 SE10      30.31R
FARMINGTON     MOSUNNY   55  36  47 S12       30.28R
POPLAR BLUFF   SUNNY     56  40  55 CALM      30.29R
WEST PLAINS    MOSUNNY   55  35  47 SW9       30.26R

$$



USA.gov is the U.S. government's official web portal to all federal, state and local government web resources and services.